Regional Weather Roundup
Issued by NWS

Home | Current Version | Previous Version | Graphics & Text | Print | Product List | Glossary On
Versions: 1 2 3 4 5 6 7 8 9 10 11 12 13 14 15 16 17 18 19 20 21 22 23 24 25 26 27 28 29 30 31 32 33 34 35 36 37 38 39 40 41 42 43 44 45 46 47 48 49 50
000
ASUS43 KFSD 011702
RWRSD

WEATHER ROUNDUP FOR SOUTH DAKOTA
NATIONAL WEATHER SERVICE SIOUX FALLS SD
1200 PM CDT MON JUN 01 2015

NOTE: "FAIR" INDICATES FEW OR NO CLOUDS BELOW 12,000 FEET WITH NO
SIGNIFICANT WEATHER AND/OR OBSTRUCTIONS TO VISIBILITY.


SDZ001>005-009-010-012>017-011800-
NORTHWEST AND NORTH CENTRAL SOUTH DAKOTA

CITY           SKY/WX    TMP DP  RH WIND       PRES   REMARKS
BUFFALO          N/A     76  57  51 S7        29.84F
FAITH            N/A     72  59  63 S13       29.92F
MOBRIDGE       SUNNY     72  56  57 SE14      29.92F
$$

SDZ012>016-024>037-041>051-057-063-072>074-011800-
SOUTHWEST AND SOUTH CENTRAL SOUTH DAKOTA

CITY           SKY/WX    TMP DP  RH WIND       PRES   REMARKS
RAPID CTY ARPT SUNNY     77  59  53 S15       29.93F
PIERRE         SUNNY     74  59  59 SE15      29.93F
CUSTER         SUNNY     75  47  36 VRB5G17   30.06F
ELLSWORTH AFB  SUNNY     77  60  54 S15G21    29.92F
PHILIP         SUNNY     77  63  61 SE12      29.92F
PINE RIDGE     SUNNY     78  59  51 S13       29.97F
WINNER         FAIR      78  58  49 S17       29.98F
$$

SDZ004>011-016>023-039-040-011800-
NORTHEAST SOUTH DAKOTA

CITY           SKY/WX    TMP DP  RH WIND       PRES   REMARKS
ABERDEEN       SUNNY     72  53  51 S22G32    30.00F
WATERTOWN      MOSUNNY   68  47  46 S21G26    30.07F
BROOKINGS      MOSUNNY   66  48  52 S18G24    30.11F
SISSETON         N/A     67  48  50 S18       30.06F
$$

SDZ017-020-022-023-036>040-048>070-011800-
SOUTHEAST SOUTH DAKOTA

CITY           SKY/WX    TMP DP  RH WIND       PRES   REMARKS
SIOUX FALLS    MOSUNNY   68  51  54 SE16      30.11F
HURON          SUNNY     71  53  52 SE18G30   30.01F
CHAMBERLAIN    SUNNY     71  58  64 S14       30.00S
MITCHELL       MOSUNNY   73  53  49 SE21      30.05F
YANKTON        SUNNY     73  52  46 S15       30.08S
$$

ABBREVIATIONS USED IN REMARKS
   TC - TEMPERATURE IN CELSIUS
  WCI - WIND CHILL INDEX
   HX - HEAT INDEX
  VSB - VISIBILITY



USA.gov is the U.S. government's official web portal to all federal, state and local government web resources and services.